Location: Unspecified
(43.4354°N, 0.0000°E)
Time: 04:31:00
(UTC+00:00)

SEEDS - Pass Details

Date: 10 August 2020
Orbit: 584 x 604 km, 97.5° (Epoch: 22 September)

Event Time Altitude Azimuth Distance (km) Brightness Sun altitude
Rises 04:12:14 0° 32° (NNE) 2,867 ? -8.6°
Reaches altitude 10° 04:15:22 10° 57° (ENE) 1,955 ? -8.1°
Maximum altitude 04:17:42 14° 90° (E) 1,680 ? -7.7°
Drops below altitude 10° 04:20:00 10° 124° (ESE) 1,942 ? -7.3°
Sets 04:23:05 0° 149° (SSE) 2,834 ? -6.8°
